Location: Maiden
(35.5760°N, 81.2120°W)
Time: 21:49:45
(UTC-04:00)

A-11 Canister half - Pass Details

Date: 15 August 2020
Orbit: 1514 x 1686 km, 47.2° (Epoch: 26 September)

Event Time Altitude Azimuth Distance (km) Brightness Sun altitude
Rises 23:01:37 0° 303° (WNW) 4,827 12.7 -29.7°
Reaches altitude 10° 23:04:44 10° 305° (NW) 3,862 12.0 -30.1°
Maximum altitude 23:14:40 72° 30° (NNE) 1,735 9.1 -31.4°
Enters shadow 23:17:26 53° 94° (E) 1,994 9.2 -31.8°
